Content
SEND FEEDBACK

United States of America Flag

BROWNSVILLE, TENNESSEE


Home > North America > United States > Tennessee
Elevation: 369 feet     Latitude: 35 35N     Longitude: 089 15W

WEATHER
 
SELECT A DAY
Number of Records: 227,297;   Date Range: 1/1/95 - 3/22/16
 
SHARE

PRINT THIS DATA

[ ← Previous Day ]
WEATHER ALMANAC - JANUARY 22, 2013
[ Next Day → ]
[ °C ]   °F
Weather ElementAverageHighLow
Temperature28.8 °F34 °F (1:53 pm)21 °F (5:53 am)
Dewpoint13 °F19.9 °F (11:53 pm)5 °F (10:53 am)
Humidity53.9 %78 % (5:53 am)35 % (10:53 am)
Barometer30.40 in30.46 in (10:53 am)30.35 in (1:53 am)
Wind Speed4.5 mph6.9 mph (3:53 am)
Weather ElementAverage
Visibility10 mi
Wind DirectionESE (101.3 °)

Weather ElementTotal
Precipitation---
Heating Degree Days37.5 (Base 65)
Averaged from 23 records on January 22, 2013
WEATHER CONDITIONS BREAKOUT
WIND DIRECTION BREAKOUT
WEATHER BY HOUR - JANUARY 22, 2013
[ °C ]   °F
Local TimeTemperatureDewpointHumidityBarometerVisibilityWind DirectionWind SpeedGust SpeedPrecipitationEventsConditions
1:53 AM24.1 °F18.0 °F77 %30.35 in10.0 miNorth (360°)4.6 mphMostly Cloudy
2:53 AM25.0 °F17.1 °F72 %30.36 in10.0 miNorth (10°)3.5 mphMostly Cloudy
3:53 AM24.1 °F16.0 °F71 %30.36 in10.0 miNNE (20°)6.9 mphClear
4:53 AM21.9 °F14.0 °F72 %30.38 in10.0 miNorth (10°)5.8 mphClear
5:53 AM21.0 °F15.1 °F78 %30.40 in10.0 miNNE (20°)6.9 mphClear
6:53 AM24.1 °F15.1 °F69 %30.41 in10.0 miNNE (30°)6.9 mphClear
7:53 AM24.1 °F12.9 °F62 %30.43 in10.0 miNNE (30°)4.6 mphMostly Cloudy
8:53 AM26.1 °F9.0 °F49 %30.45 in10.0 miENE (60°)6.9 mphClear
9:53 AM28.9 °F7.0 °F40 %30.45 in10.0 miNNE (20°)3.5 mphClear
10:53 AM30.0 °F5.0 °F35 %30.46 in10.0 miNorth (350°)3.5 mphClear
11:53 AM32.0 °F7.0 °F35 %30.43 in10.0 miNW (320°)5.8 mphClear
12:53 PM33.1 °F8.1 °F35 %30.40 in10.0 miVariable3.5 mphClear
1:53 PM34.0 °F9.0 °F35 %30.40 in10.0 miVariable4.6 mphClear
2:53 PM33.1 °F10.9 °F40 %30.40 in10.0 miNNW (330°)5.8 mphOvercast
3:53 PM33.1 °F12.0 °F42 %30.40 in10.0 miNW (320°)4.6 mphOvercast
4:53 PM32.0 °F12.9 °F45 %30.39 in10.0 miCalmOvercast
5:53 PM32.0 °F14.0 °F48 %30.39 in10.0 miNorth (10°)4.6 mphOvercast
6:53 PM30.9 °F14.0 °F50 %30.38 in10.0 miNNW (340°)4.6 mphOvercast
7:53 PM30.9 °F14.0 °F50 %30.36 in10.0 miNNE (30°)5.8 mphOvercast
8:53 PM30.9 °F16.0 °F54 %30.37 in10.0 miNNE (20°)5.8 mphOvercast
9:53 PM32.0 °F17.1 °F54 %30.37 in10.0 miNE (50°)4.6 mphOvercast
10:53 PM30.9 °F16.0 °F54 %30.38 in10.0 miCalmOvercast
11:53 PM28.0 °F19.9 °F72 %30.38 in10.0 miCalmPartly Cloudy
Hourly data recorded from KMKL, located miles away from Brownsville, Tennessee




STORIES FROM OUR PARTNERS